Hourly Weather Kisumu

Today, 20 October, Tuesday

Time Temperature Precipitation Wind Pressure Humidity
00:00 +22°C° 0.4 mm 1 mps 663 mmHg 84%
01:00 +22°C° 0.4 mm 1 mps 663 mmHg 85%
02:00 +22°C° 0 mm 1 mps 662 mmHg 86%
03:00 +20°C° 0.6 mm 2 mps 663 mmHg 87%
04:00 +20°C° 0.6 mm 2 mps 663 mmHg 88%
05:00 +20°C° 0.6 mm 2 mps 663 mmHg 89%
06:00 +23°C° 0.2 mm 1 mps 664 mmHg 84%
07:00 +24°C° 0.2 mm 1 mps 664 mmHg 79%
08:00 +25°C° 0 mm 1 mps 665 mmHg 74%
09:00 +27°C° 0.1 mm 1 mps 665 mmHg 69%
10:00 +28°C° 0.1 mm 1 mps 665 mmHg 64%
11:00 +30°C° 0.1 mm 2 mps 665 mmHg 59%
12:00 +29°C° 1.2 mm 2 mps 664 mmHg 60%
13:00 +29°C° 1.2 mm 2 mps 663 mmHg 60%
14:00 +29°C° 1.2 mm 2 mps 663 mmHg 61%
15:00 +27°C° 1.1 mm 2 mps 662 mmHg 69%
16:00 +26°C° 1.1 mm 2 mps 662 mmHg 77%
17:00 +24°C° 1.1 mm 2 mps 662 mmHg 85%
18:00 +23°C° 1.1 mm 2 mps 663 mmHg 86%
19:00 +23°C° 1.1 mm 2 mps 663 mmHg 88%
20:00 +22°C° 1.1 mm 1 mps 664 mmHg 89%
21:00 +22°C° 1 mm 1 mps 664 mmHg 89%
22:00 +22°C° 1 mm 1 mps 664 mmHg 88%
23:00 +22°C° 1 mm 1 mps 664 mmHg 87%

Tomorrow, 21 October, Wednesday

Time Temperature Precipitation Wind Pressure Humidity
00:00 +22°C° 0.7 mm 1 mps 664 mmHg 87%
01:00 +22°C° 0.7 mm 1 mps 663 mmHg 87%
02:00 +21°C° 0.7 mm 1 mps 663 mmHg 87%
03:00 +21°C° 0.1 mm 1 mps 663 mmHg 87%
04:00 +21°C° 0.1 mm 1 mps 663 mmHg 86%
05:00 +20°C° 0.1 mm 1 mps 663 mmHg 86%
06:00 +22°C° 0 mm 1 mps 664 mmHg 81%
07:00 +24°C° 0 mm 1 mps 665 mmHg 75%
08:00 +26°C° 0 mm 1 mps 665 mmHg 70%
09:00 +27°C° 0.2 mm 1 mps 665 mmHg 66%
10:00 +28°C° 0.2 mm 1 mps 665 mmHg 62%
11:00 +30°C° 0.2 mm 2 mps 664 mmHg 58%
12:00 +30°C° 1 mm 2 mps 664 mmHg 58%
13:00 +30°C° 1 mm 2 mps 663 mmHg 59%
14:00 +29°C° 1 mm 2 mps 663 mmHg 60%
15:00 +28°C° 1.2 mm 2 mps 663 mmHg 67%
16:00 +27°C° 1.2 mm 2 mps 663 mmHg 73%
17:00 +26°C° 1.2 mm 2 mps 663 mmHg 80%
18:00 +25°C° 2.4 mm 2 mps 663 mmHg 84%
19:00 +24°C° 2.4 mm 2 mps 664 mmHg 87%
20:00 +23°C° 2.4 mm 2 mps 664 mmHg 91%
21:00 +23°C° 0.4 mm 1 mps 664 mmHg 90%
22:00 +23°C° 0.4 mm 1 mps 664 mmHg 89%
23:00 +21°C° 0.4 mm 0 mps 664 mmHg 89%

Day after tomorrow, 22 October, Thursday

Time Temperature Precipitation Wind Pressure Humidity
00:00 +22°C° 0.1 mm 1 mps 664 mmHg 88%
01:00 +22°C° 0.1 mm 1 mps 664 mmHg 88%
02:00 +22°C° 0.1 mm 1 mps 663 mmHg 87%
03:00 +22°C° 0 mm 1 mps 664 mmHg 87%
04:00 +22°C° 0 mm 1 mps 664 mmHg 87%
05:00 +21°C° 0 mm 1 mps 664 mmHg 87%
06:00 +23°C° 0 mm 1 mps 665 mmHg 81%
07:00 +25°C° 0 mm 1 mps 666 mmHg 75%
08:00 +26°C° 0 mm 1 mps 666 mmHg 69%
09:00 +27°C° 0.4 mm 1 mps 666 mmHg 66%
10:00 +28°C° 0.4 mm 2 mps 665 mmHg 62%
11:00 +29°C° 0.4 mm 2 mps 665 mmHg 59%
12:00 +30°C° 0.4 mm 2 mps 664 mmHg 57%
13:00 +30°C° 0.4 mm 2 mps 664 mmHg 56%
14:00 +30°C° 0.4 mm 2 mps 663 mmHg 55%
15:00 +28°C° 0.8 mm 2 mps 663 mmHg 63%
16:00 +27°C° 0.8 mm 2 mps 663 mmHg 72%
17:00 +25°C° 0.8 mm 3 mps 663 mmHg 80%
18:00 +24°C° 0.5 mm 2 mps 663 mmHg 83%
19:00 +23°C° 0.5 mm 2 mps 664 mmHg 85%
20:00 +21°C° 0.5 mm 2 mps 664 mmHg 88%
21:00 +21°C° 0.2 mm 2 mps 664 mmHg 87%
22:00 +21°C° 0.2 mm 2 mps 664 mmHg 87%
23:00 +20°C° 0.2 mm 2 mps 663 mmHg 86%

23 October, Friday

Time Temperature Precipitation Wind Pressure Humidity
00:00 +20°C° 0.1 mm 2 mps 663 mmHg 85%
01:00 +20°C° 0.1 mm 2 mps 663 mmHg 84%
02:00 +20°C° 0.1 mm 2 mps 663 mmHg 83%
03:00 +20°C° 0 mm 2 mps 663 mmHg 82%
04:00 +20°C° 0 mm 2 mps 663 mmHg 82%
05:00 +19°C° 0 mm 2 mps 664 mmHg 82%
06:00 +21°C° 0 mm 2 mps 664 mmHg 76%
07:00 +24°C° 0 mm 1 mps 665 mmHg 71%
08:00 +26°C° 0 mm 1 mps 666 mmHg 65%
09:00 +27°C° 0.2 mm 1 mps 666 mmHg 62%
10:00 +28°C° 0.2 mm 2 mps 665 mmHg 60%
11:00 +29°C° 0.2 mm 2 mps 665 mmHg 57%
12:00 +30°C° 0.1 mm 2 mps 664 mmHg 54%
13:00 +30°C° 0.1 mm 2 mps 664 mmHg 52%
14:00 +31°C° 0.1 mm 2 mps 663 mmHg 49%
15:00 +29°C° 0.2 mm 2 mps 663 mmHg 56%
16:00 +28°C° 0.2 mm 2 mps 663 mmHg 63%
17:00 +27°C° 0.2 mm 2 mps 663 mmHg 70%
18:00 +26°C° 0.9 mm 1 mps 663 mmHg 75%
19:00 +24°C° 0.9 mm 1 mps 664 mmHg 80%
20:00 +23°C° 0.9 mm 1 mps 664 mmHg 86%
21:00 +23°C° 0.2 mm 1 mps 664 mmHg 85%
22:00 +23°C° 0.2 mm 2 mps 664 mmHg 85%
23:00 +23°C° 0.2 mm 2 mps 663 mmHg 84%

24 October, Saturday

Time Temperature Precipitation Wind Pressure Humidity
00:00 +22°C° 0.1 mm 1 mps 663 mmHg 84%
01:00 +22°C° 0.1 mm 1 mps 663 mmHg 84%
02:00 +22°C° 0.1 mm 1 mps 663 mmHg 84%
03:00 +22°C° 0 mm 1 mps 663 mmHg 84%
04:00 +20°C° 0 mm 2 mps 663 mmHg 83%
05:00 +20°C° 0 mm 2 mps 663 mmHg 83%
06:00 +23°C° 0 mm 2 mps 664 mmHg 77%
07:00 +25°C° 0 mm 1 mps 665 mmHg 70%
08:00 +27°C° 0 mm 1 mps 665 mmHg 64%
09:00 +28°C° 0.1 mm 1 mps 665 mmHg 60%
10:00 +29°C° 0.1 mm 2 mps 665 mmHg 55%
11:00 +31°C° 0.1 mm 2 mps 664 mmHg 51%
12:00 +30°C° 0.6 mm 2 mps 664 mmHg 54%
13:00 +30°C° 0.6 mm 3 mps 663 mmHg 56%
14:00 +29°C° 0.6 mm 3 mps 663 mmHg 59%
15:00 +28°C° 1.6 mm 3 mps 663 mmHg 67%
16:00 +26°C° 1.6 mm 2 mps 663 mmHg 75%
17:00 +25°C° 1.6 mm 2 mps 663 mmHg 83%
18:00 +24°C° 1.1 mm 2 mps 663 mmHg 86%
19:00 +23°C° 1.1 mm 2 mps 663 mmHg 89%
20:00 +21°C° 1.1 mm 3 mps 664 mmHg 93%
21:00 +21°C° 0.1 mm 2 mps 664 mmHg 92%
22:00 +20°C° 0.1 mm 2 mps 663 mmHg 91%
23:00 +20°C° 0.1 mm 2 mps 663 mmHg 90%

25 October, Sunday

Time Temperature Precipitation Wind Pressure Humidity
00:00 +20°C° 0 mm 2 mps 663 mmHg 89%
01:00 +20°C° 0 mm 2 mps 663 mmHg 87%
02:00 +20°C° 0 mm 2 mps 662 mmHg 86%
03:00 +20°C° 0 mm 2 mps 662 mmHg 85%
04:00 +20°C° 0 mm 2 mps 663 mmHg 84%
05:00 +19°C° 0 mm 2 mps 663 mmHg 83%
06:00 +23°C° 0 mm 2 mps 664 mmHg 77%
07:00 +25°C° 0 mm 2 mps 664 mmHg 71%
08:00 +27°C° 0 mm 1 mps 665 mmHg 65%
09:00 +28°C° 0.2 mm 1 mps 665 mmHg 61%
10:00 +29°C° 0.2 mm 2 mps 664 mmHg 57%
11:00 +30°C° 0.2 mm 2 mps 664 mmHg 52%
12:00 +30°C° 0.6 mm 2 mps 663 mmHg 54%
13:00 +30°C° 0.6 mm 2 mps 663 mmHg 55%
14:00 +30°C° 0.6 mm 2 mps 662 mmHg 56%
15:00 +28°C° 1.8 mm 2 mps 662 mmHg 66%
16:00 +26°C° 1.8 mm 2 mps 662 mmHg 75%
17:00 +24°C° 1.8 mm 2 mps 662 mmHg 85%
18:00 +23°C° 1.7 mm 2 mps 662 mmHg 87%
19:00 +22°C° 1.7 mm 3 mps 663 mmHg 88%
20:00 +21°C° 1.7 mm 3 mps 663 mmHg 90%
21:00 +21°C° 0.3 mm 3 mps 663 mmHg 90%
22:00 +21°C° 0.3 mm 2 mps 663 mmHg 89%
23:00 +21°C° 0.3 mm 2 mps 663 mmHg 88%

26 October, Monday

Time Temperature Precipitation Wind Pressure Humidity
00:00 +21°C° 0 mm 2 mps 663 mmHg 87%
01:00 +21°C° 0 mm 2 mps 662 mmHg 86%
02:00 +21°C° 0 mm 2 mps 662 mmHg 86%
03:00 +22°C° 0 mm 1 mps 662 mmHg 85%
04:00 +22°C° 0 mm 1 mps 662 mmHg 84%
05:00 +22°C° 0 mm 1 mps 663 mmHg 83%
06:00 +22°C° 0 mm 1 mps 663 mmHg 83%
07:00 +21°C° 0 mm 0 mps 664 mmHg 82%
08:00 +21°C° 0 mm 0 mps 664 mmHg 82%
09:00 +24°C° 0.1 mm 1 mps 664 mmHg 77%
10:00 +26°C° 0.1 mm 1 mps 664 mmHg 72%
11:00 +27°C° 0.1 mm 2 mps 664 mmHg 67%
12:00 +27°C° 0.8 mm 2 mps 663 mmHg 68%
13:00 +27°C° 0.8 mm 2 mps 662 mmHg 69%
14:00 +27°C° 0.8 mm 3 mps 662 mmHg 70%
15:00 +26°C° 1.5 mm 2 mps 662 mmHg 75%
16:00 +25°C° 1.5 mm 2 mps 662 mmHg 81%
17:00 +23°C° 1.5 mm 1 mps 662 mmHg 87%
18:00 +23°C° 0.8 mm 2 mps 662 mmHg 89%
19:00 +21°C° 0.8 mm 2 mps 662 mmHg 90%
20:00 +21°C° 0.8 mm 3 mps 663 mmHg 91%
21:00 +20°C° 1.1 mm 2 mps 663 mmHg 92%
22:00 +20°C° 1.1 mm 2 mps 663 mmHg 94%
23:00 +19°C° 1.1 mm 2 mps 663 mmHg 95%
Show more